Погода в Малом Имыше

Россия / Красноярский край     55°13′10″N   90°31′30″E
темп.,
°C
ветер,
м/с
пор.,
м/с
влажн.,
%
обл.,
%
осадки,
мм/ч
давл.,
гПа
погр.,
м
27 февраля, сб
сб2701:00−24юз4983100 0.1 1036298
04:00−27ююз3584100 0.0 103794
07:00−27ююз2484100 0.0 103782
10:00−24ююз3778100 0.0 1037323
13:00−21юз4778100 0.0 1036894
16:00−19зюз4788100 0.1 10361192
19:00−21зюз3585100 0.1 103681
22:00−22зюз3784100 0.0 1038151
28 февраля, вс
вс2801:00−24юз2284100 0.0 103825
04:00−24ююз1285100 0.0 103820
07:00−24ю1284100 0.0 104020
10:00−22ююз2384100 0.0 1039124
13:00−19ююз2482100 0.0 1038338
16:00−18ю358592 0.0 1036358
19:00−23юв129059 0.0 103520
22:00−23ююв129093 0.0 103320
1 марта, пн
пн101:00−22юв129296 0.0 103020
04:00−20вюв1299100 0.2 102739
07:00−20вюв2299100 0.4 102455
10:00−17юв3696100 0.6 1021271
13:00−14ююв4695100 1.4 1017335
16:00−12ююв3595100 1.1 1015335
19:00−12юв2496100 2.0 1014185
22:00−12вюв2496100 0.9 1012151
2 марта, вт
вт201:00−11в2296100 2.7 1010110
04:00−11юв1296100 1.6 100987
07:00−10ююв2296100 2.7 101074
10:00−7сз3892100 0.1 1012447
13:00−8сз2393100 0.4 1014269
16:00−9с3493100 0.7 1015264
19:00−12с2496100 1.1 1017158
22:00−14с1296100 0.4 101827
3 марта, ср
ср301:00−14с1197100 0.8 101720
04:00−15св1197100 0.3 101620
07:00−16всв1197100 0.5 101721
10:00−15всв2395100 0.4 1017187
13:00−14всв3393100 0.6 1017253
16:00−13всв3494100 0.3 1017311
19:00−15св1296100 0.8 101924
22:00−17св2297100 0.4 102243